deb DMSP F-14

Debris
NORAD ID: 62936 Int'l Des: 1997-012 Owner: AFSMC Country: US
LEOCIRCULARRETROGRADE

deb DMSP F-14について

説明を読み込み中...

リアルタイム位置

3D地球を読み込み中...

次回通過

高度履歴

Altitude vs Time

uPlot chart will show altitude changes over time

軌道要素

1 62936U 97012G 26062.16938102 .01013168 00000-0 53322-1 0 9997
2 62936 99.1877 143.8557 0050931 247.5979 111.9845 15.11639705 63256
Epoch: Mar 3, 2026 • Age: 20 hours

現在のステータス

高度 530.8 km
速度 7.61 km/s
衛星直下点 -53.40°S, 59.97°E
打ち上げ日 Apr 4, 1997
運用期間 28.9 years
タイプ debris

技術仕様

分類 Fragmentation Debris
質量 0.00 kg
乾燥質量 0.00 kg
総質量 0.00 kg
長さ 0.00 m
直径 0.00 m
スパン 0.00 m
製造者 LMTEW
フェーズステータス In Orbit
所有者/国 AFSMC/US

大規模コンステレーション

Loading constellations...